Date String (YYYY-MM-DD hh:mm:ss) UTC,Instrument flags,absolute air pressure of the measurement (hPa),sample flow rate (lpm),inlet stack bypass flow (lpm),air temperature of the measurement (°C),ambient temperature measured by the external sensor (°C),aerosol sample conditioner tube jacket temperature (°C),OPC LED temperature (°C),internal box temperature (°C),relative humidity of the measurement (%),span deviation,mass concentration of particles derived from Lorenz-Mie calculation of OPC scattering (μg/m³),mass concentration of particles derived from Lorenz-Mie calculation of OPC scattering (μg/m³),mass concentration of particles derived from Lorenz-Mie calculation of OPC scattering (μg/m³)
DateTimeUTC,F1_M11,P_M11,Q1_M11,Q2_M11,T1_M11,T2_M11,T3_M11,T4_M11,T5_M11,U1_M11,ZSPAN_M11,X0_M11,X2_M11,X1_M11
2024-04-10 06:00:00,SystemResetWarning,0828.2,5.00,000.00,025.2,024.3,000.0,033.7,027.0,009.9,0000.0,0009.37,0003.49,0001.57
2024-04-10 06:01:00,SystemResetWarning,0828.1,5.00,000.00,025.2,024.3,000.0,033.7,027.0,009.9,0000.0,0009.17,0003.46,0001.56
2024-04-10 06:02:00,SystemResetWarning,0828.2,5.01,000.00,025.2,024.4,000.0,033.7,027.0,010.0,0000.0,0009.02,0003.46,0001.57
2024-04-10 06:03:00,SystemResetWarning,0828.2,5.01,000.00,025.2,024.4,000.0,033.7,027.0,010.0,0000.0,0009.04,0003.44,0001.56
2024-04-10 06:04:00,SystemResetWarning,0828.2,5.00,000.00,025.2,024.4,000.0,033.7,027.0,010.1,0000.0,0008.94,0003.42,0001.55
2024-04-10 06:05:00,SystemResetWarning,0828.2,5.01,000.00,025.2,024.4,000.0,033.7,027.0,010.1,0000.0,0008.87,0003.38,0001.55
2024-04-10 06:06:00,SystemResetWarning,0828.2,4.99,000.00,025.2,024.4,000.0,033.7,027.0,010.2,0000.0,0009.21,0003.37,0001.55
2024-04-10 06:07:00,SystemResetWarning,0828.1,4.99,000.00,025.2,024.4,000.0,033.7,027.0,010.3,0000.0,0009.29,0003.41,0001.56
2024-04-10 06:08:00,SystemResetWarning,0828.2,4.99,000.00,025.2,024.4,000.0,033.7,027.1,010.3,0000.0,0009.32,0003.46,0001.57
2024-04-10 06:09:00,SystemResetWarning,0828.2,5.00,000.00,025.2,024.4,000.0,033.7,027.1,010.1,0000.0,0008.43,0003.47,0001.57
2024-04-10 06:10:00,SystemResetWarning,0828.1,5.01,000.00,025.2,024.4,000.0,033.7,027.1,010.1,0000.0,0008.20,0003.50,0001.59
2024-04-10 06:11:00,SystemResetWarning,0828.2,5.01,000.00,025.2,024.4,000.0,033.7,027.0,010.1,0000.0,0008.42,0003.54,0001.60
2024-04-10 06:12:00,SystemResetWarning,0828.1,5.00,000.00,025.2,024.4,000.0,033.7,027.0,010.1,0000.0,0008.94,0003.60,0001.62
2024-04-10 06:13:00,SystemResetWarning,0828.1,5.00,000.00,025.2,024.4,000.0,033.7,027.0,010.1,0000.0,0008.94,0003.56,0001.62
2024-04-10 06:14:00,SystemResetWarning,0828.2,5.00,000.00,025.2,024.3,000.0,033.7,027.0,010.1,0000.0,0008.96,0003.56,0001.62
2024-04-10 06:15:00,SystemResetWarning,0828.2,4.99,000.00,025.2,024.3,000.0,033.7,027.0,010.1,0000.0,0009.03,0003.60,0001.64
2024-04-10 06:16:00,SystemResetWarning,0828.2,5.00,000.00,025.2,024.3,000.0,033.7,027.0,010.1,0000.0,0009.06,0003.63,0001.64
2024-04-10 06:17:00,SystemResetWarning,0828.2,5.00,000.00,025.2,024.3,000.0,033.7,027.0,010.1,0000.0,0008.83,0003.62,0001.63
2024-04-10 06:18:00,SystemResetWarning,0828.2,5.00,000.00,025.2,024.3,000.0,033.7,027.0,010.1,0000.0,0008.89,0003.61,0001.62
2024-04-10 06:19:00,SystemResetWarning,0828.2,5.00,000.00,025.1,024.3,000.0,033.7,027.0,010.1,0000.0,0008.95,0003.63,0001.62
2024-04-10 06:20:00,SystemResetWarning,0828.2,5.00,000.00,025.1,024.3,000.0,033.7,027.0,010.1,0000.0,0009.63,0003.62,0001.63
2024-04-10 06:21:00,SystemResetWarning,0828.2,5.00,000.00,025.1,024.3,000.0,033.7,027.0,010.1,0000.0,0009.83,0003.62,0001.62
2024-04-10 06:22:00,SystemResetWarning,0828.2,5.00,000.00,025.1,024.4,000.0,033.7,027.0,010.1,0000.0,0009.62,0003.56,0001.60
2024-04-10 06:23:00,SystemResetWarning,0828.1,4.99,000.00,025.1,024.4,000.0,033.7,027.0,010.1,0000.0,0009.05,0003.46,0001.57
2024-04-10 06:24:00,SystemResetWarning,0828.2,4.99,000.00,025.1,024.4,000.0,033.7,027.0,010.1,0000.0,0008.97,0003.46,0001.57
2024-04-10 06:25:00,SystemResetWarning,0828.1,5.00,000.00,025.2,024.4,000.0,033.7,027.0,010.1,0000.0,0009.35,0003.46,0001.56
2024-04-10 06:26:00,SystemResetWarning,0828.1,5.00,000.00,025.2,024.4,000.0,033.7,027.0,010.2,0000.0,0009.94,0003.43,0001.55
2024-04-10 06:27:00,SystemResetWarning,0828.1,5.01,000.00,025.2,024.4,000.0,033.7,027.0,010.1,0000.0,0010.09,0003.43,0001.55
2024-04-10 06:28:00,SystemResetWarning,0828.1,5.00,000.00,025.2,024.4,000.0,033.7,027.0,010.1,0000.0,0010.35,0003.40,0001.54
2024-04-10 06:29:00,SystemResetWarning,0828.1,4.99,000.00,025.2,024.4,000.0,033.7,027.0,010.1,0000.0,0010.41,0003.37,0001.53
2024-04-10 06:30:00,SystemResetWarning,0828.1,5.00,000.00,025.2,024.4,000.0,033.7,027.1,010.1,0000.0,0010.17,0003.29,0001.53
2024-04-10 06:31:00,SystemResetWarning,0828.1,5.00,000.00,025.2,024.4,000.0,033.7,027.0,010.1,0000.0,0009.50,0003.24,0001.51
2024-04-10 06:32:00,SystemResetWarning,0828.1,5.00,000.00,025.2,024.4,000.0,033.7,027.0,010.0,0000.0,0009.25,0003.23,0001.49
2024-04-10 06:33:00,SystemResetWarning,0828.1,5.00,000.00,025.2,024.5,000.0,033.7,027.0,009.8,0000.0,0009.28,0003.27,0001.50
2024-04-10 06:34:00,SystemResetWarning,0828.1,5.00,000.00,025.2,024.4,000.0,033.7,027.0,009.8,0000.0,0009.45,0003.31,0001.52
2024-04-10 06:35:00,SystemResetWarning,0828.1,5.00,000.00,025.2,024.4,000.0,033.7,027.0,009.7,0000.0,0009.56,0003.37,0001.52
2024-04-10 06:36:00,SystemResetWarning,0828.1,5.00,000.00,025.2,024.4,000.0,033.7,027.0,009.8,0000.0,0009.68,0003.38,0001.53
2024-04-10 06:37:00,SystemResetWarning,0828.1,5.01,000.00,025.2,024.4,000.0,033.7,027.0,009.8,0000.0,0009.12,0003.35,0001.53
2024-04-10 06:38:00,SystemResetWarning,0828.2,5.00,000.00,025.2,024.4,000.0,033.7,027.0,009.7,0000.0,0008.93,0003.33,0001.53
2024-04-10 06:39:00,SystemResetWarning,0828.2,5.00,000.00,025.2,024.4,000.0,033.7,027.0,009.7,0000.0,0008.55,0003.34,0001.54
2024-04-10 06:40:00,SystemResetWarning,0828.2,5.01,000.00,025.2,024.4,000.0,033.7,027.0,009.8,0000.0,0008.29,0003.36,0001.54
2024-04-10 06:41:00,SystemResetWarning,0828.2,5.00,000.00,025.2,024.4,000.0,033.7,027.0,009.9,0000.0,0008.80,0003.40,0001.56
2024-04-10 06:42:00,SystemResetWarning,0828.2,5.00,000.00,025.2,024.4,000.0,033.7,027.0,009.9,0000.0,0008.88,0003.45,0001.57
2024-04-10 06:43:00,SystemResetWarning,0828.2,4.99,000.00,025.2,024.4,000.0,033.7,027.0,009.9,0000.0,0008.91,0003.48,0001.59
2024-04-10 06:44:00,SystemResetWarning,0828.2,5.00,000.00,025.2,024.4,000.0,033.7,027.0,010.0,0000.0,0008.92,0003.46,0001.57
2024-04-10 06:45:00,SystemResetWarning,0828.2,5.00,000.00,025.1,024.4,000.0,033.7,027.0,010.0,0000.0,0008.87,0003.45,0001.56
2024-04-10 06:46:00,SystemResetWarning,0828.2,5.00,000.00,025.1,024.4,000.0,033.6,026.9,010.0,0000.0,0008.76,0003.39,0001.55
2024-04-10 06:47:00,SystemResetWarning,0828.2,5.01,000.00,025.1,024.4,000.0,033.6,027.0,010.0,0000.0,0008.53,0003.38,0001.55
2024-04-10 06:48:00,SystemResetWarning,0828.1,5.01,000.00,025.1,024.4,000.0,033.6,027.0,010.1,0000.0,0008.21,0003.35,0001.55
2024-04-10 06:49:00,SystemResetWarning,0828.1,5.01,000.00,025.1,024.4,000.0,033.6,026.9,010.1,0000.0,0008.28,0003.39,0001.56
2024-04-10 06:50:00,SystemResetWarning,0828.1,4.99,000.00,025.1,024.4,000.0,033.6,026.9,009.9,0000.0,0008.96,0003.43,0001.56
2024-04-10 06:51:00,SystemResetWarning,0828.1,4.99,000.00,025.1,024.4,000.0,033.6,027.0,010.0,0000.0,0009.09,0003.46,0001.60
2024-04-10 06:52:00,SystemResetWarning,0828.1,5.00,000.00,025.1,024.4,000.0,033.6,026.9,010.0,0000.0,0008.58,0003.41,0001.58
2024-04-10 06:53:00,SystemResetWarning,0828.1,4.99,000.00,025.1,024.4,000.0,033.6,027.0,010.0,0000.0,0008.47,0003.37,0001.57
2024-04-10 06:54:00,SystemResetWarning,0828.1,5.00,000.00,025.1,024.4,000.0,033.6,027.0,009.9,0000.0,0008.53,0003.39,0001.58
2024-04-10 06:55:00,SystemResetWarning,0828.1,5.01,000.00,025.1,024.4,000.0,033.6,027.0,009.9,0000.0,0008.42,0003.39,0001.58
2024-04-10 06:56:00,SystemResetWarning,0828.1,5.00,000.00,025.1,024.4,000.0,033.6,027.0,009.9,0000.0,0008.47,0003.44,0001.59
2024-04-10 06:57:00,SystemResetWarning,0828.2,5.00,000.00,025.1,024.4,000.0,033.6,027.0,009.9,0000.0,0008.64,0003.46,0001.60
2024-04-10 06:58:00,SystemResetWarning,0828.2,5.00,000.00,025.1,024.4,000.0,033.6,027.0,010.0,0000.0,0009.16,0003.45,0001.62
2024-04-10 06:59:00,SystemResetWarning,0828.2,5.00,000.00,025.2,024.4,000.0,033.6,027.0,009.9,0000.0,0009.41,0003.49,0001.63
